STARLINK-3119 (49145 NORAD) Tracking and Keplerian Element Data

This shows tracking and keplerian element data for the satellite.

Feedback or suggestion? Click here.




ElementValue
Catalog49145
NameSTARLINK-3119
Epoch Orbit697
Epoch Day300.91667824
Epoch Year2021
RAAN3.7705
Inclination69.9998
Eccentricity0.0003744
Argument of Perigee290.68
Mean Anonmoly163.2388
Mean Motion15.69730364
Decay Rate0.00022083
L11 49145U 21082R 21300.91667824 .00022083 00000-0 18641-3 0 9993
L22 49145 69.9998 3.7705 0003744 290.6800 163.2388 15.69730364 6977

Live tracking and technical data element details for STARLINK-3119 (NORAD 49145). STARLINK-3119 can be tracked NOW for your location showing map with azimuth and elevation plus other details from your city location.

Track the satellite on the map from your city or location and see movement details for azimuth, elevation, latitude, longitude, range, height, and movement on the map or in text.







IsCatalogInMostPopularTable: catalog: 49145, numindb: 8
Update: records affected: 1



GetName: 49145 STARLINK-3119

Hit Count: updated at: Thu, 28 Oct 2021 11:43:55 GMT